Price, UT

8:31 PM MDT on April 25, 2017 (GMT -0600)
Carbon County

Weather History for KPUC - May, 2013

Change the Weather History Date:

Saturday, May 25, 2013

  Actual Average Record
Temperature  
Mean Temperature 64 °F -  
Max Temperature 82 °F 74 °F 89 °F (2001)
Min Temperature 46 °F 45 °F 35 °F (1980)
Degree Days  
Heating Degree Days 1    
Growing Degree Days 14 (Base 50)    
Moisture  
Dew Point 13 °F    
Average Humidity 15    
Maximum Humidity 31    
Minimum Humidity 6    
Precipitation  
Precipitation 0.00 in - - ()
Sea Level Pressure  
Sea Level Pressure 29.79 in    
Wind  
Wind Speed 9 mph (SSW)    
Max Wind Speed 20 mph    
Max Gust Speed 31 mph    
Visibility 10 miles    
Events      
Averages and records for this station are not official NWS values.
T = Trace of Precipitation, MM = Missing Value Source: NWS Daily Summary

Daily Weather History Graph

Daily Weather History Graph

Search for Another Location

Airport or City:

Trip Planner

Search our weather history database for the weather conditions in past years. The results will help you decide how hot, cold, wet, or windy it might be!

Date:

Astronomy

May. 25, 2013 Rise Set
Actual Time 6:00 AM MDT 8:39 PM MDT
Civil Twilight 5:29 AM MDT 9:10 PM MDT
Nautical Twilight 4:50 AM MDT 9:50 PM MDT
Astronomical Twilight 4:06 AM MDT 10:34 PM MDT
Moon 9:31 PM MDT (5/25) 6:31 AM MDT (5/25)
Length of Visible Light 15h 41m
Length of Day
14h 38m
Waxing Gibbous, 99% of the Moon is Illuminated
May 25
Waxing Gibbous
May 31
Last Quarter
Jun 8
New
Jun 16
First Quarter
Jun 23
Full

Hourly Weather History & Observations

Time (MDT) Temp. Windchill Dew Point Humidity Pressure Visibility Wind Dir Wind Speed Gust Speed Precip Events Conditions
12:53 AM 55.0 °F - 10.0 °F 17% 29.80 in 10.0 mi NNE 5.8 mph - N/A   Clear
1:53 AM 52.0 °F - 12.0 °F 20% 29.79 in 10.0 mi NNE 8.1 mph - N/A   Clear
2:53 AM 50.0 °F - 12.0 °F 22% 29.79 in 10.0 mi NE 6.9 mph - N/A   Clear
3:53 AM 48.9 °F - 12.9 °F 24% 29.80 in 10.0 mi NE 4.6 mph - N/A   Clear
4:53 AM 48.0 °F - 16.0 °F 28% 29.82 in 10.0 mi NNE 5.8 mph - N/A   Clear
5:53 AM 46.0 °F 42.5 °F 17.1 °F 31% 29.84 in 10.0 mi NNE 6.9 mph - N/A   Clear
6:53 AM 48.9 °F - 18.0 °F 29% 29.86 in 10.0 mi NNE 5.8 mph - N/A   Clear
7:53 AM 54.0 °F - 21.0 °F 28% 29.86 in 10.0 mi Calm Calm - N/A   Clear
8:53 AM 63.0 °F - 18.0 °F 18% 29.85 in 10.0 mi ESE 4.6 mph - N/A   Clear
9:53 AM 66.0 °F - 17.1 °F 15% 29.86 in 10.0 mi SE 5.8 mph - N/A   Clear
10:53 AM 69.1 °F - 17.1 °F 14% 29.86 in 10.0 mi SSE 9.2 mph 18.4 mph N/A   Clear
11:53 AM 73.9 °F - 12.9 °F 10% 29.82 in 10.0 mi South 19.6 mph 25.3 mph N/A   Clear
12:53 PM 75.0 °F - 10.9 °F 9% 29.82 in 10.0 mi South 18.4 mph 23.0 mph N/A   Clear
1:53 PM 79.0 °F - 10.0 °F 7% 29.79 in 10.0 mi SSW 11.5 mph 28.8 mph N/A   Clear
2:53 PM 80.1 °F - 10.0 °F 7% 29.78 in 10.0 mi SSW 16.1 mph 24.2 mph N/A   Clear
3:53 PM 81.0 °F - 9.0 °F 6% 29.76 in 10.0 mi SSW 19.6 mph 31.1 mph N/A   Clear
4:53 PM 82.0 °F - 9.0 °F 6% 29.74 in 10.0 mi SSW 18.4 mph 26.5 mph N/A   Clear
5:53 PM 80.1 °F - 8.1 °F 6% 29.74 in 10.0 mi South 16.1 mph 24.2 mph N/A   Clear
6:53 PM 79.0 °F - 9.0 °F 7% 29.72 in 10.0 mi South 19.6 mph 25.3 mph N/A   Clear
7:53 PM 78.1 °F - 9.0 °F 7% 29.71 in 10.0 mi WSW 12.7 mph - N/A   Clear
8:53 PM 72.0 °F - 12.0 °F 10% 29.71 in 10.0 mi WNW 11.5 mph - N/A   Clear
9:53 PM 69.1 °F - 10.0 °F 10% 29.73 in 10.0 mi WNW 9.2 mph - N/A   Clear
10:53 PM 64.9 °F - 10.9 °F 12% 29.76 in 10.0 mi WNW 6.9 mph - N/A   Clear
11:53 PM 62.1 °F - 10.9 °F 13% 29.76 in 10.0 mi NW 9.2 mph - N/A   Clear